FW2463 Le Neubourg FR current weather conditions

sailwx.info

Wind from 102 at 1 knots gusting 2

Air temperature 3.9° C
Dewpoint 3.3° C

Last reported at 2019-Nov-17 02:03 UTC.
Time now 2019-Nov-17 02:54 UTC

Location: N 49°09' E 000°55'.
View on Google Maps.

See reports from other nearby stations

  
Tides and Currents Weather Stations Pressure Air Temp Water Temp Dewpoint Dewpoint Depression Visibility Wind Speed Wind Dir Waves Ship Positions
date/time (UTC)wind fromknots sea level pressurealtimeterstation pressurevisibilityair tempwater tempwave heightnotes
2019-Nov-17 02:03 102 1 gusting 2 3.9
2019-Nov-17 01:54 098 1 gusting 2 3.9
2019-Nov-17 01:47 115 3.3
2019-Nov-17 01:36 110 0 gusting 1 3.3
2019-Nov-17 01:27 105 1 gusting 3 3.3
2019-Nov-17 01:18 124 1 gusting 3 3.3
2019-Nov-17 01:09 136 1 gusting 3 3.3
2019-Nov-17 01:00 138 1 gusting 3 3.3
2019-Nov-17 00:51 138 1 gusting 2 3.3
2019-Nov-17 00:42 138 0 gusting 2 3.3
2019-Nov-17 00:33 137 0 gusting 2 3.3
2019-Nov-17 00:24 137 0 gusting 2 3.3
2019-Nov-17 00:15 137 3.3
2019-Nov-17 00:06 132 0 gusting 2 3.3
2019-Nov-16 23:57 119 0 gusting 2 3.3
2019-Nov-16 23:48 105 0 gusting 1 2.8
2019-Nov-16 23:39 2.8
2019-Nov-16 23:30 2.8
2019-Nov-16 23:21 2.8
2019-Nov-16 23:12 115 0 gusting 2 2.8
2019-Nov-16 23:03 135 0 gusting 2 2.2
2019-Nov-16 22:54 2.2
2019-Nov-16 22:45 091 2.2
2019-Nov-16 22:36 2.2
2019-Nov-16 22:27 091 0 gusting 1 2.2
2019-Nov-16 22:18 091 2.2
2019-Nov-16 22:09 091 0 gusting 1 2.2
2019-Nov-16 22:00 091 1 gusting 1 2.2
2019-Nov-16 21:51 091 1 gusting 2 2.2
2019-Nov-16 21:42 095 1 gusting 2 2.2
2019-Nov-16 21:33 095 2 gusting 3 2.2
2019-Nov-16 21:24 092 0 gusting 2 2.2
2019-Nov-16 21:15 091 0 gusting 2 2.2
2019-Nov-16 21:06 091 2.2
2019-Nov-16 20:57 137 2.2
2019-Nov-16 20:48 116 1 gusting 2 2.2
2019-Nov-16 20:39 101 1 gusting 2 2.2
2019-Nov-16 20:30 095 0 gusting 2 2.2
2019-Nov-16 20:21 2.2
2019-Nov-16 20:12 2.2
2019-Nov-16 20:03 099 0 gusting 1 2.8
2019-Nov-16 19:54 144 0 gusting 2 2.8
2019-Nov-16 19:45 139 1 gusting 3 3.3
2019-Nov-16 19:36 150 1 gusting 2 3.3
2019-Nov-16 19:27 159 1 gusting 2 3.9
2019-Nov-16 19:18 160 1 gusting 2 3.9
2019-Nov-16 19:09 169 0 gusting 2 4.4
2019-Nov-16 19:00 174 1 gusting 3 4.4
2019-Nov-16 18:51 140 2 gusting 4 5.0
2019-Nov-16 18:42 157 1 gusting 4 5.0
2019-Nov-16 18:33 175 1 gusting 4 5.0
2019-Nov-16 18:24 174 1 gusting 2 5.0
2019-Nov-16 18:15 141 2 gusting 4 5.0
2019-Nov-16 18:06 141 2 gusting 4 5.0
2019-Nov-16 17:57 140 2 gusting 5 5.0
2019-Nov-16 17:48 146 2 gusting 5 5.6
2019-Nov-16 17:39 118 3 gusting 6 5.6
2019-Nov-16 17:30 108 4 gusting 5 5.6
2019-Nov-16 17:21 112 4 gusting 6 5.6
2019-Nov-16 17:12 135 2 gusting 5 5.6
2019-Nov-16 17:03 139 2 gusting 4 5.6
2019-Nov-16 16:54 145 3 gusting 5 5.6
2019-Nov-16 16:45 149 2 gusting 5 5.6
2019-Nov-16 16:36 162 2 gusting 5 5.6
2019-Nov-16 16:27 168 2 gusting 4 5.6
2019-Nov-16 16:18 153 3 gusting 7 5.6
2019-Nov-16 16:09 160 3 gusting 7 5.6
2019-Nov-16 16:00 171 2 gusting 5 5.6
2019-Nov-16 15:51 158 3 gusting 6 6.1
2019-Nov-16 15:42 173 3 gusting 5 6.1
2019-Nov-16 15:33 163 2 gusting 5 6.1
2019-Nov-16 15:24 154 2 gusting 6 6.1
2019-Nov-16 15:15 142 3 gusting 6 6.1
2019-Nov-16 15:06 119 4 gusting 7 6.1
2019-Nov-16 14:57 135 3 gusting 6 6.1
2019-Nov-16 14:48 137 3 gusting 7 6.1
2019-Nov-16 14:39 131 5 gusting 8 6.1
2019-Nov-16 14:30 115 4 gusting 8 6.1
2019-Nov-16 14:21 128 5 gusting 9 6.1
2019-Nov-16 14:12 119 5 gusting 9 6.1
2019-Nov-16 14:03 125 5 gusting 8 6.1
2019-Nov-16 13:54 119 5 gusting 7 6.1
2019-Nov-16 13:45 113 4 gusting 8 6.1
2019-Nov-16 13:36 115 5 gusting 6 6.7
2019-Nov-16 13:27 131 5 gusting 9 6.7
2019-Nov-16 13:18 134 6 gusting 10 6.7
2019-Nov-16 13:09 135 6 gusting 10 6.7
2019-Nov-16 13:00 145 5 gusting 8 6.1
2019-Nov-16 12:51 143 4 gusting 7 6.1
2019-Nov-16 12:42 135 6 gusting 10 6.1
2019-Nov-16 12:33 132 4 gusting 8 6.1
2019-Nov-16 12:24 133 4 gusting 10 5.6
2019-Nov-16 12:15 124 3 gusting 5 5.6
2019-Nov-16 12:06 108 4 gusting 6 5.6
2019-Nov-16 11:57 113 3 gusting 5 5.6
2019-Nov-16 11:48 124 5 gusting 7 5.6
2019-Nov-16 11:39 130 4 gusting 9 5.6
2019-Nov-16 11:30 116 5 gusting 7 5.6
2019-Nov-16 11:21 108 5 gusting 7 5.6
2019-Nov-16 11:12 113 5 gusting 7 5.6
2019-Nov-16 11:03 125 4 gusting 8 5.6
2019-Nov-16 10:54 121 4 gusting 8 5.6
2019-Nov-16 10:45 104 5 gusting 7 5.6
2019-Nov-16 10:36 106 5 gusting 8 5.6
2019-Nov-16 10:27 098 4 gusting 8 5.6
2019-Nov-16 10:18 101 5 gusting 7 5.0
2019-Nov-16 10:09 102 6 gusting 9 5.0
2019-Nov-16 10:00 107 6 gusting 9 5.0
2019-Nov-16 09:51 112 5 gusting 8 4.4
2019-Nov-16 09:42 104 5 gusting 7 4.4
2019-Nov-16 09:33 110 5 gusting 7 4.4
2019-Nov-16 09:24 106 5 gusting 7 4.4
2019-Nov-16 09:15 101 5 gusting 7 4.4
2019-Nov-16 09:06 104 5 gusting 6 4.4
2019-Nov-16 08:57 104 4 gusting 7 4.4
2019-Nov-16 08:48 100 5 gusting 7 3.9
2019-Nov-16 08:39 098 6 gusting 8 3.9
2019-Nov-16 08:30 096 5 gusting 7 3.9
2019-Nov-16 08:21 104 5 gusting 8 3.9
2019-Nov-16 08:12 119 5 gusting 7 3.9
2019-Nov-16 08:03 111 4 gusting 6 3.9
2019-Nov-16 07:54 121 4 gusting 7 3.9
2019-Nov-16 07:45 113 5 gusting 8 3.3
2019-Nov-16 07:36 103 5 gusting 8 3.3
2019-Nov-16 07:27 098 5 gusting 8 3.3
2019-Nov-16 07:18 098 4 gusting 7 3.3
2019-Nov-16 07:09 095 4 gusting 6 3.3
2019-Nov-16 07:00 090 4 gusting 9 3.3
2019-Nov-16 06:51 091 5 gusting 8 3.3
2019-Nov-16 06:42 090 4 gusting 7 3.3
2019-Nov-16 06:33 090 4 gusting 7 3.3
2019-Nov-16 06:24 090 4 gusting 6 3.3
2019-Nov-16 06:15 093 4 gusting 6 3.3
2019-Nov-16 06:06 091 4 gusting 6 3.3
2019-Nov-16 05:57 102 4 gusting 6 3.3
2019-Nov-16 05:48 110 4 gusting 7 3.3
2019-Nov-16 05:39 115 4 gusting 6 3.3
2019-Nov-16 05:30 118 3 gusting 6 3.3
2019-Nov-16 05:21 133 3 gusting 6 3.3
2019-Nov-16 05:12 129 4 gusting 7 3.3
2019-Nov-16 05:03 121 3 gusting 6 3.3
2019-Nov-16 04:54 124 4 gusting 7 3.3
2019-Nov-16 04:45 130 3 gusting 6 3.3
2019-Nov-16 04:36 135 3 gusting 5 3.3
2019-Nov-16 04:27 133 2 gusting 6 3.3
2019-Nov-16 04:18 132 3 gusting 6 3.3
2019-Nov-16 04:09 129 3 gusting 7 3.3
2019-Nov-16 04:00 127 4 gusting 6 3.3
2019-Nov-16 03:51 124 4 gusting 6 3.3
2019-Nov-16 03:42 110 5 gusting 8 3.3
2019-Nov-16 03:33 099 5 gusting 8 3.3
2019-Nov-16 03:24 107 5 gusting 8 3.3
2019-Nov-16 03:15 105 6 gusting 9 3.3
2019-Nov-16 03:06 117 6 gusting 9 3.3
2019-Nov-16 02:57 117 4 gusting 6 3.3
2019-Nov-16 02:48 134 3 gusting 5 3.3
2019-Nov-16 02:39 131 3 gusting 6 3.3
2019-Nov-16 02:30 138 3 gusting 6 3.3
2019-Nov-16 02:21 144 3 gusting 6 3.3
2019-Nov-16 02:12 155 2 gusting 4 3.3
2019-Nov-16 02:03 147 3 gusting 5 3.3
2019-Nov-16 01:54 133 2 gusting 4 3.3
2019-Nov-16 01:45 143 2 gusting 5 3.3
2019-Nov-16 01:36 133 2 gusting 5 2.8
2019-Nov-16 01:27 140 2 gusting 4 2.8
2019-Nov-16 01:18 141 2 gusting 5 2.8
2019-Nov-16 01:09 144 3 gusting 4 2.8
2019-Nov-16 01:00 143 3 gusting 5 2.8
2019-Nov-16 00:51 144 2 gusting 5 2.8
2019-Nov-16 00:42 140 3 gusting 5 2.8
2019-Nov-16 00:33 150 2 gusting 5 2.8
2019-Nov-16 00:24 143 2 gusting 5 2.8
2019-Nov-16 00:15 126 2 gusting 5 2.8
2019-Nov-16 00:06 130 1 gusting 4 2.2
2019-Nov-15 23:57 145 1 gusting 3 2.2
2019-Nov-15 23:48 164 0 gusting 2 2.2
2019-Nov-15 23:39 166 0 gusting 3 2.2
2019-Nov-15 23:30 170 1 gusting 4 2.2
2019-Nov-15 23:21 162 1 gusting 3 2.2
2019-Nov-15 23:12 164 1 gusting 3 2.2
2019-Nov-15 23:03 157 1 gusting 3 2.2
2019-Nov-15 22:54 159 1 gusting 3 2.2
2019-Nov-15 22:45 156 1 gusting 5 2.2
2019-Nov-15 22:36 161 0 gusting 3 2.2
2019-Nov-15 22:27 168 0 gusting 3 2.2
2019-Nov-15 22:18 170 1 gusting 3 2.2
2019-Nov-15 22:09 160 1 gusting 3 2.2
2019-Nov-15 22:00 165 1 gusting 3 2.2
2019-Nov-15 21:51 146 2 gusting 4 2.2
2019-Nov-15 21:42 145 1 gusting 4 2.2
2019-Nov-15 21:33 153 1 gusting 3 1.7
2019-Nov-15 21:24 175 2 gusting 3 1.7
2019-Nov-15 21:15 174 1 gusting 3 1.7
2019-Nov-15 21:06 157 0 gusting 1 1.7
2019-Nov-15 20:57 175 1.7
2019-Nov-15 20:48 182 0 gusting 1 1.7
2019-Nov-15 20:39 204 0 gusting 1 1.7
2019-Nov-15 20:30 195 1.7
2019-Nov-15 20:21 191 1 gusting 3 1.7
2019-Nov-15 20:12 185 0 gusting 2 1.7
2019-Nov-15 20:03 223 1.7
2019-Nov-15 19:54 231 0 gusting 2 1.7
2019-Nov-15 19:45 228 1.7
2019-Nov-15 19:36 213 1.7
2019-Nov-15 19:27 1.7
2019-Nov-15 19:18 1.7
2019-Nov-15 19:09 1.7
2019-Nov-15 19:00 1.7
2019-Nov-15 18:51 352 1.7
2019-Nov-15 18:42 355 1.7
2019-Nov-15 18:33 318 1.7
2019-Nov-15 18:24 318 1.7
2019-Nov-15 18:15 1.7
2019-Nov-15 18:06 301 0 gusting 2 1.7
2019-Nov-15 17:57 312 1 gusting 2 1.7
2019-Nov-15 17:48 314 1 gusting 3 1.7
2019-Nov-15 17:39 307 1 gusting 3 1.7
2019-Nov-15 17:30 313 2 gusting 3 1.7
2019-Nov-15 17:21 318 1 gusting 3 1.7
2019-Nov-15 17:12 316 1 gusting 3 1.7
2019-Nov-15 17:03 341 1.7
2019-Nov-15 16:54 005 1.7
2019-Nov-15 16:45 346 2 gusting 6 1.7
2019-Nov-15 16:36 333 3 gusting 6 2.2
2019-Nov-15 16:27 352 4 gusting 8 2.2
2019-Nov-15 16:18 348 3 gusting 7 2.2
2019-Nov-15 16:09 336 3 gusting 5 2.2
2019-Nov-15 16:00 339 3 gusting 6 2.8
2019-Nov-15 15:51 346 3 gusting 7 2.8
2019-Nov-15 15:42 347 2 gusting 6 2.8
2019-Nov-15 15:33 356 3 gusting 6 2.8
2019-Nov-15 15:24 012 3 gusting 6 2.8
2019-Nov-15 15:15 011 3 gusting 5 2.8
2019-Nov-15 15:06 005 5 gusting 9 2.8
2019-Nov-15 14:57 359 5 gusting 9 3.3
2019-Nov-15 14:48 008 4 gusting 6 3.3
2019-Nov-15 14:39 024 4 gusting 8 3.3
2019-Nov-15 14:30 024 4 gusting 6 3.3
2019-Nov-15 14:21 034 3 gusting 6 3.3
2019-Nov-15 14:12 031 4 gusting 7 3.3
2019-Nov-15 14:03 022 5 gusting 9 3.9
2019-Nov-15 13:54 022 5 gusting 9 3.9
2019-Nov-15 13:45 011 5 gusting 11 4.4
2019-Nov-15 13:36 027 3 gusting 6 4.4
2019-Nov-15 13:27 359 1 gusting 6 4.4
2019-Nov-15 13:18 328 1 gusting 2 4.4
2019-Nov-15 13:09 292 1 gusting 3 4.4
2019-Nov-15 13:00 275 1 gusting 3 4.4
2019-Nov-15 12:51 273 0 gusting 2 4.4
2019-Nov-15 12:42 269 1 gusting 3 4.4
2019-Nov-15 12:33 270 2 gusting 3 4.4
2019-Nov-15 12:24 271 2 gusting 3 4.4
2019-Nov-15 12:15 270 3 gusting 5 4.4
2019-Nov-15 12:06 275 2 gusting 4 4.4
2019-Nov-15 11:57 293 2 gusting 4 4.4
2019-Nov-15 11:48 312 1 gusting 4 4.4
2019-Nov-15 11:39 315 1 gusting 3 3.3
2019-Nov-15 11:30 347 2 gusting 3 3.3
2019-Nov-15 11:21 353 2 gusting 6 3.3
2019-Nov-15 11:12 354 3 gusting 5 3.3
2019-Nov-15 11:03 355 2 gusting 4 3.3
2019-Nov-15 10:54 345 1 gusting 5 3.3
2019-Nov-15 10:45 337 2 gusting 5 3.3
2019-Nov-15 10:36 330 2 gusting 5 3.3
2019-Nov-15 10:27 325 2 gusting 5 3.3
2019-Nov-15 10:18 317 2 gusting 4 3.3
2019-Nov-15 10:09 318 2 gusting 3 3.3
2019-Nov-15 10:00 327 2 gusting 6 3.3
2019-Nov-15 09:51 341 2 gusting 5 3.3
2019-Nov-15 09:42 330 1 gusting 4 3.3
2019-Nov-15 09:33 324 1 gusting 3 3.3
2019-Nov-15 09:24 325 2 gusting 4 3.3
2019-Nov-15 09:15 321 2 gusting 5 3.3
2019-Nov-15 09:06 321 2 gusting 4 3.3
2019-Nov-15 08:57 320 2 gusting 5 3.3
2019-Nov-15 08:48 316 3 gusting 5 3.3
2019-Nov-15 08:39 317 2 gusting 4 3.3
2019-Nov-15 08:30 312 2 gusting 3 2.8
2019-Nov-15 08:21 332 1 gusting 3 2.8
2019-Nov-15 08:12 339 1 gusting 3 2.8
2019-Nov-15 08:03 345 0 gusting 3 2.8
2019-Nov-15 07:54 341 0 gusting 2 2.8
2019-Nov-15 07:45 346 0 gusting 3 2.8
2019-Nov-15 07:36 344 0 gusting 3 2.8
2019-Nov-15 07:27 344 0 gusting 2 2.8
2019-Nov-15 07:18 335 0 gusting 2 2.8
2019-Nov-15 07:09 339 0 gusting 2 2.8
2019-Nov-15 07:00 337 0 gusting 3 2.8
2019-Nov-15 06:51 338 1 gusting 3 2.8
2019-Nov-15 06:42 342 2 gusting 4 2.8
2019-Nov-15 06:33 348 3 gusting 5 2.8
2019-Nov-15 06:24 350 2 gusting 6 2.2
2019-Nov-15 06:15 338 2 gusting 5 2.2
2019-Nov-15 06:06 347 2 gusting 3 2.2
2019-Nov-15 05:57 342 2 gusting 5 2.2
2019-Nov-15 05:48 346 2 gusting 5 2.2
2019-Nov-15 05:39 338 2 gusting 5 2.2
2019-Nov-15 05:30 339 3 gusting 5 2.2
2019-Nov-15 05:21 342 3 gusting 6 2.2
2019-Nov-15 05:12 350 4 gusting 6 2.2
2019-Nov-15 05:03 346 3 gusting 6 2.2
2019-Nov-15 04:54 345 3 gusting 6 2.2
2019-Nov-15 04:45 348 3 gusting 5 2.2
2019-Nov-15 04:36 352 4 gusting 7 2.2
2019-Nov-15 04:27 358 4 gusting 7 2.2
2019-Nov-15 04:18 349 4 gusting 6 2.2
2019-Nov-15 04:09 349 4 gusting 6 2.2
2019-Nov-15 04:00 337 4 gusting 6 1.7
2019-Nov-15 03:51 353 4 gusting 6 1.7
2019-Nov-15 03:42 353 4 gusting 6 1.7
2019-Nov-15 03:33 349 3 gusting 6 1.7
2019-Nov-15 03:24 342 3 gusting 6 1.7
2019-Nov-15 03:15 347 3 gusting 5 1.7
2019-Nov-15 03:06 349 3 gusting 5 2.2
2019-Nov-15 02:57 354 3 gusting 5 2.2
2019-Nov-15 02:48 001 4 gusting 8 2.2
2019-Nov-15 02:39 001 3 gusting 5 2.2
2019-Nov-15 02:30 009 3 gusting 5 1.7
2019-Nov-15 02:21 004 3 gusting 5 1.7
2019-Nov-15 02:12 008 3 gusting 6 1.7
2019-Nov-15 02:03 005 3 gusting 6 1.7